Regional Weather Roundup
Issued by NWS

Home | Current Version | Previous Version | Graphics & Text | Print | Product List | Glossary On
Versions: 1 2 3 4 5 6 7 8 9 10 11 12 13 14 15 16 17 18 19 20 21 22 23 24 25 26 27 28 29 30 31 32 33 34 35 36 37 38 39 40 41 42 43 44 45 46 47 48 49 50
000
ASUS43 KTOP 270908
RWRKS

WEATHER ROUNDUP FOR KANSAS
NATIONAL WEATHER SERVICE GOODLAND KS
400 AM CDT SAT MAY 27 2017

NOTE:  "FAIR" INDICATES FEW OR NO CLOUDS BELOW 12,000 FEET WITH NO
SIGNIFICANT WEATHER AND/OR OBSTRUCTIONS TO VISIBILITY.

KSZ001>006-013>018-027>032-041>047-271000-
NORTHWEST KANSAS

CITY           SKY/WX    TMP DP  RH WIND       PRES   REMARKS
GOODLAND       CLOUDY    52  50  93 E8        29.90R THUNDER
HAYS           TSTM      57  55  93 CALM      29.89R
HILL CITY      TSTM      60  56  86 NE25G31   29.83F
RUSSELL        TSTM      57  55  93 N26G36    29.86S FOG
$$

KSZ061>065-074>080-084>089-271000-
SOUTHWEST KANSAS

CITY           SKY/WX    TMP DP  RH WIND       PRES   REMARKS
DODGE CITY     MOCLDY    67  60  78 VRB5G21   29.83R
ELKHART          N/A     58  49  72 MISG        N/A
GARDEN CITY    MOCLDY    62  53  72 NE16      29.85R
GREAT BEND     CLOUDY    70  60  70 N21       29.87R
LIBERAL        PTCLDY    63  58  83 SE8       29.76F
PRATT          CLEAR     62  58  86 SE6       29.76S
$$

KSZ066>073-081>083-090>101-271000-
SOUTHEAST KANSAS

CITY           SKY/WX    TMP DP  RH WIND       PRES   REMARKS
CHANUTE        CLEAR     67  64  90 E5        29.79F
COFFEYVILLE    CLEAR     66  66 100 NE7       29.75F
HUTCHINSON     CLEAR     68  62  81 SE12      29.74F
MEDICINE LODGE   N/A     65  61  87 S5        29.76S
NEWTON         CLEAR     66  62  87 E10       29.76F
PARSONS        CLEAR     67  65  93 CALM      29.78F
WICHITA INTL   CLEAR     68  64  87 SE10      29.75F
WICHITA JABRA  CLEAR     63  62  97 SE5       29.76F
WICHITA MCCONL CLEAR     67  62  83 SE7       29.75F
WINFIELD       CLEAR     67  63  87 SE5       29.78R
$$

KSZ007>012-019>026-033>040-048>060-102>105-271000-
NORTHEAST KANSAS

CITY           SKY/WX    TMP DP  RH WIND       PRES   REMARKS
CONCORDIA      CLOUDY    62  55  77 NE3       29.83S
EMPORIA        CLEAR     61  61 100 CALM      29.79F
LAWRENCE       CLEAR     63  63 100 CALM      29.82S
MANHATTAN      CLOUDY    64  59  83 N5        29.78F
MARYSVILLE     CLOUDY    64  52  63 E9        29.82F
OLATHE IND     CLEAR     66  64  93 E7        29.83S
OLATHE EXE     CLEAR     65  64  97 E5        29.83S
SALINA         CLOUDY    67  61  81 NE8       29.78F
TOPEKA BILLARD CLOUDY    65  64  97 CALM      29.81F
TOPEKA FORBES  CLEAR     64  62  93 CALM      29.81F
$$



USA.gov is the U.S. government's official web portal to all federal, state and local government web resources and services.